| time (UTC) | temp F | wind direction | speed MPH | gust MPH | rain 1hr in | rain 24hr in | rain mn in | humidity % | barometer mb |
| 20260506062404 | 47 | 202 | 0.0 | 0.0 | 0.02 | 0.45 | 0.04 | 91 | 1005.4 |
| 20260506061904 | 48 | 202 | 0.0 | 0.0 | 0.02 | 0.45 | 0.04 | 91 | 1005.4 |
| 20260506061404 | 48 | 202 | 0.0 | 0.0 | 0.02 | 0.45 | 0.04 | 91 | 1005.4 |
| 20260506060904 | 48 | 202 | 0.0 | 0.0 | 0.02 | 0.45 | 0.04 | 91 | 1005.4 |
| 20260506060404 | 47 | 202 | 0.0 | 0.0 | 0.02 | 0.45 | 0.04 | 91 | 1005.4 |
| 20260506051404 | 48 | 202 | 0.0 | 0.0 | 0.02 | 0.43 | 0.02 | 91 | 1005.7 |
| 20260506050904 | 48 | 202 | 0.0 | 0.0 | 0.02 | 0.43 | 0.02 | 91 | 1005.8 |
| 20260506050404 | 48 | 202 | 0.0 | 0.0 | 0.02 | 0.43 | 0.02 | 91 | 1006.0 |
| 20260506044404 | 48 | 202 | 0.0 | 0.0 | 0.02 | 0.43 | 0.02 | 91 | 1006.0 |
| 20260506043404 | 48 | 202 | 0.0 | 0.0 | 0.04 | 0.43 | 0.02 | 91 | 1006.0 |
| 20260506042904 | 48 | 202 | 0.0 | 0.0 | 0.04 | 0.43 | 0.02 | 91 | 1006.0 |
| 20260506042404 | 49 | 202 | 0.0 | 0.0 | 0.04 | 0.43 | 0.02 | 91 | 1006.0 |
| 20260506041904 | 49 | 202 | 0.0 | 0.0 | 0.06 | 0.43 | 0.02 | 91 | 1006.4 |
| 20260506040904 | 49 | 202 | 0.0 | 0.0 | 0.04 | 0.41 | 0.00 | 91 | 1006.4 |
| 20260506040405 | 49 | 202 | 0.0 | 0.0 | 0.04 | 0.41 | 0.00 | 91 | 1006.7 |
| 20260506035904 | 49 | 202 | 0.0 | 0.0 | 0.06 | 0.41 | 0.41 | 91 | 1006.7 |
| 20260506035404 | 49 | 202 | 0.0 | 0.0 | 0.06 | 0.41 | 0.41 | 91 | 1006.7 |
| 20260506033904 | 49 | 202 | 0.0 | 0.0 | 0.11 | 0.41 | 0.41 | 91 | 1006.7 |
| 20260506033404 | 50 | 202 | 0.0 | 0.0 | 0.08 | 0.39 | 0.39 | 91 | 1006.7 |
| 20260506032904 | 50 | 202 | 0.0 | 0.0 | 0.08 | 0.39 | 0.39 | 91 | 1006.7 |
| 20260506032404 | 50 | 202 | 0.0 | 0.0 | 0.10 | 0.39 | 0.39 | 91 | 1006.7 |
| 20260506031904 | 50 | 202 | 0.0 | 0.0 | 0.10 | 0.39 | 0.39 | 91 | 1006.4 |
| 20260506031404 | 50 | 202 | 0.0 | 0.0 | 0.10 | 0.37 | 0.37 | 91 | 1006.4 |
| 20260506030904 | 50 | 202 | 0.0 | 0.0 | 0.12 | 0.37 | 0.37 | 91 | 1006.4 |
| 20260506030404 | 50 | 202 | 0.0 | 0.0 | 0.12 | 0.37 | 0.37 | 91 | 1006.4 |
| 20260506025904 | 50 | 202 | 0.0 | 0.0 | 0.12 | 0.34 | 0.34 | 91 | 1006.0 |
| 20260506025404 | 50 | 202 | 0.0 | 0.0 | 0.12 | 0.34 | 0.34 | 91 | 1006.4 |
| 20260506024904 | 50 | 202 | 0.0 | 0.0 | 0.10 | 0.32 | 0.32 | 91 | 1006.0 |
| 20260506023904 | 50 | 180 | 0.0 | 0.0 | 0.08 | 0.30 | 0.30 | 91 | 1006.0 |
| 20260506023404 | 50 | 180 | 0.0 | 0.0 | 0.08 | 0.30 | 0.30 | 91 | 1006.4 |
| 20260506022904 | 50 | 180 | 0.0 | 0.0 | 0.08 | 0.30 | 0.30 | 91 | 1006.4 |
| 20260506022404 | 50 | 180 | 0.0 | 0.0 | 0.06 | 0.28 | 0.28 | 91 | 1006.4 |
| 20260506021904 | 50 | 180 | 0.0 | 0.0 | 0.06 | 0.28 | 0.28 | 91 | 1006.4 |
| 20260506020903 | 50 | 180 | 0.0 | 0.0 | 0.04 | 0.24 | 0.24 | 90 | 1006.4 |
| 20260506020404 | 50 | 180 | 0.0 | 0.0 | 0.04 | 0.24 | 0.24 | 90 | 1006.4 |
| 20260506015904 | 50 | 180 | 0.0 | 0.0 | 0.02 | 0.22 | 0.22 | 90 | 1006.4 |
| 20260506015404 | 50 | 180 | 0.0 | 0.0 | 0.02 | 0.22 | 0.22 | 90 | 1006.0 |
| 20260506014904 | 50 | 158 | 0.0 | 0.0 | 0.02 | 0.22 | 0.22 | 90 | 1006.0 |
| 20260506014404 | 50 | 158 | 0.0 | 0.0 | 0.02 | 0.22 | 0.22 | 90 | 1006.0 |
| 20260506013904 | 50 | 158 | 0.0 | 0.0 | 0.02 | 0.22 | 0.22 | 90 | 1005.8 |
| 20260506012904 | 50 | 158 | 0.0 | 0.0 | 0.04 | 0.22 | 0.22 | 90 | 1006.0 |
| 20260506012405 | 50 | 158 | 0.0 | 0.0 | 0.04 | 0.22 | 0.22 | 90 | 1006.0 |
| 20260506011904 | 50 | 158 | 0.0 | 0.0 | 0.04 | 0.22 | 0.22 | 90 | 1005.7 |
| 20260506010904 | 50 | 158 | 0.0 | 0.0 | 0.02 | 0.20 | 0.20 | 90 | 1005.7 |
| 20260506010405 | 50 | 158 | 0.0 | 0.0 | 0.02 | 0.20 | 0.20 | 90 | 1005.7 |
| 20260506005404 | 50 | 158 | 0.0 | 0.0 | 0.02 | 0.20 | 0.20 | 90 | 1005.7 |
| 20260506004903 | 50 | 158 | 0.0 | 0.0 | 0.02 | 0.20 | 0.20 | 90 | 1005.7 |
| 20260506004404 | 50 | 158 | 0.0 | 0.0 | 0.02 | 0.20 | 0.20 | 90 | 1005.7 |
| 20260506003904 | 50 | 158 | 0.0 | 0.0 | 0.02 | 0.20 | 0.20 | 90 | 1005.7 |
| 20260506003405 | 50 | 158 | 0.0 | 0.0 | 0.02 | 0.18 | 0.18 | 90 | 1005.7 |
| 20260506002904 | 50 | 158 | 0.0 | 0.0 | 0.02 | 0.18 | 0.18 | 90 | 1005.7 |
| 20260506002404 | 50 | 158 | 0.0 | 0.0 | 0.04 | 0.18 | 0.18 | 90 | 1005.5 |
| 20260506001404 | 50 | 158 | 0.0 | 0.0 | 0.06 | 0.18 | 0.18 | 90 | 1005.4 |
| 20260506000904 | 50 | 158 | 0.0 | 0.0 | 0.06 | 0.18 | 0.18 | 90 | 1005.4 |
| 20260506000404 | 50 | 158 | 0.0 | 0.0 | 0.06 | 0.18 | 0.18 | 90 | 1005.7 |
| 20260505235904 | 50 | 158 | 0.0 | 0.0 | 0.08 | 0.18 | 0.18 | 90 | 1006.0 |
| 20260505235404 | 50 | 158 | 0.0 | 0.0 | 0.08 | 0.18 | 0.18 | 90 | 1006.0 |
| 20260505234903 | 50 | 158 | 0.0 | 0.0 | 0.10 | 0.18 | 0.18 | 90 | 1006.0 |
| 20260505233904 | 50 | 158 | 0.0 | 0.0 | 0.10 | 0.18 | 0.18 | 90 | 1006.4 |
| 20260505233403 | 50 | 158 | 0.0 | 0.0 | 0.08 | 0.16 | 0.16 | 90 | 1006.1 |
| 20260505232904 | 50 | 158 | 0.0 | 0.0 | 0.08 | 0.16 | 0.16 | 90 | 1005.7 |
| 20260505231904 | 50 | 248 | 0.0 | 0.0 | 0.04 | 0.12 | 0.12 | 89 | 1005.7 |
| 20260505231404 | 50 | 248 | 0.0 | 0.0 | 0.04 | 0.12 | 0.12 | 89 | 1005.7 |
| 20260505230904 | 50 | 248 | 0.0 | 0.0 | 0.06 | 0.12 | 0.12 | 89 | 1006.0 |
| 20260505230404 | 50 | 248 | 0.0 | 0.0 | 0.06 | 0.12 | 0.12 | 89 | 1006.0 |
| 20260505225904 | 50 | 248 | 0.0 | 0.0 | 0.06 | 0.10 | 0.10 | 89 | 1006.0 |
| 20260505225404 | 50 | 248 | 0.0 | 0.0 | 0.06 | 0.10 | 0.10 | 89 | 1006.4 |
| 20260505224904 | 50 | 248 | 0.0 | 0.0 | 0.04 | 0.08 | 0.08 | 89 | 1006.4 |
| 20260505223904 | 50 | 248 | 0.0 | 0.0 | 0.04 | 0.08 | 0.08 | 89 | 1006.0 |
| 20260505223404 | 50 | 248 | 0.0 | 0.0 | 0.06 | 0.08 | 0.08 | 89 | 1005.9 |
| 20260505222904 | 50 | 248 | 0.0 | 0.0 | 0.06 | 0.08 | 0.08 | 89 | 1006.0 |
| 20260505222403 | 50 | 270 | 0.0 | 0.0 | 0.08 | 0.08 | 0.08 | 89 | 1006.0 |
| 20260505221904 | 50 | 270 | 0.0 | 0.0 | 0.08 | 0.08 | 0.08 | 89 | 1006.0 |
| 20260505221404 | 50 | 270 | 0.0 | 0.0 | 0.08 | 0.08 | 0.08 | 88 | 1005.7 |
| 20260505220904 | 50 | 270 | 0.0 | 0.0 | 0.06 | 0.06 | 0.06 | 89 | 1006.0 |
| 20260505220404 | 50 | 270 | 0.0 | 0.0 | 0.06 | 0.06 | 0.06 | 88 | 1006.0 |
| 20260505215904 | 50 | 270 | 0.0 | 0.0 | 0.04 | 0.04 | 0.04 | 88 | 1006.0 |
| 20260505215404 | 50 | 270 | 0.0 | 0.0 | 0.04 | 0.04 | 0.04 | 88 | 1005.9 |
| 20260505214904 | 50 | 270 | 0.0 | 0.0 | 0.04 | 0.04 | 0.04 | 88 | 1005.7 |
| 20260505214404 | 50 | 270 | 0.0 | 0.0 | 0.04 | 0.04 | 0.04 | 88 | 1006.0 |
| 20260505213904 | 50 | 270 | 1.0 | 1.0 | 0.04 | 0.04 | 0.04 | 88 | 1006.0 |
| 20260505213404 | 50 | 270 | 0.0 | 0.0 | 0.02 | 0.02 | 0.02 | 88 | 1005.5 |
| 20260505212904 | 51 | 270 | 0.0 | 0.0 | 0.02 | 0.02 | 0.02 | 88 | 1005.7 |
| 20260505212404 | 51 | 270 | 0.0 | 0.0 | 0.00 | 0.00 | 0.00 | 88 | 1005.7 |
| 20260505211904 | 51 | 257 | 0.0 | 0.0 | 0.00 | 0.00 | 0.00 | 88 | 1005.7 |
| 20260505211405 | 51 | 248 | 0.0 | 0.0 | 0.00 | 0.00 | 0.00 | 88 | 1005.7 |
| 20260505210904 | 51 | 292 | 0.0 | 0.0 | 0.00 | 0.00 | 0.00 | 88 | 1005.7 |
| 20260505210403 | 51 | 270 | 0.0 | 0.0 | 0.00 | 0.00 | 0.00 | 88 | 1005.7 |
| 20260505205904 | 52 | 270 | 0.0 | 0.0 | 0.00 | 0.00 | 0.00 | 88 | 1005.7 |
| 20260505205404 | 52 | 270 | 0.0 | 0.0 | 0.00 | 0.00 | 0.00 | 88 | 1005.7 |
| 20260505204904 | 52 | 286 | 0.0 | 0.0 | 0.00 | 0.00 | 0.00 | 88 | 1005.7 |
| 20260505204404 | 52 | 292 | 0.0 | 0.0 | 0.00 | 0.00 | 0.00 | 88 | 1005.7 |
| 20260505203904 | 52 | 270 | 0.0 | 0.0 | 0.00 | 0.00 | 0.00 | 88 | 1005.4 |
| 20260505203404 | 53 | 270 | 0.0 | 0.0 | 0.00 | 0.00 | 0.00 | 88 | 1005.4 |
| 20260505202904 | 53 | 270 | 1.0 | 1.0 | 0.00 | 0.00 | 0.00 | 87 | 1005.4 |
| 20260505202404 | 53 | 292 | 0.0 | 0.0 | 0.00 | 0.00 | 0.00 | 87 | 1005.4 |
| 20260505201904 | 53 | 270 | 0.0 | 0.0 | 0.00 | 0.00 | 0.00 | 87 | 1005.4 |
| 20260505201404 | 53 | 270 | 0.0 | 0.0 | 0.00 | 0.00 | 0.00 | 87 | 1005.4 |
| 20260505200404 | 54 | 258 | 0.0 | 0.0 | 0.00 | 0.00 | 0.00 | 86 | 1005.4 |
| 20260505195404 | 54 | 270 | 0.0 | 0.0 | 0.00 | 0.00 | 0.00 | 85 | 1005.4 |
| 20260505194903 | 55 | 218 | 0.0 | 0.0 | 0.00 | 0.00 | 0.00 | 84 | 1005.4 |
| 20260505194404 | 55 | 248 | 0.0 | 1.0 | 0.00 | 0.00 | 0.00 | 83 | 1005.4 |
| 20260505193904 | 55 | 270 | 0.0 | 1.0 | 0.00 | 0.00 | 0.00 | 83 | 1005.4 |
| 20260505192904 | 56 | 270 | 0.0 | 7.0 | 0.00 | 0.00 | 0.00 | 82 | 1005.4 |
| 20260505192404 | 56 | 225 | 3.0 | 7.0 | 0.00 | 0.00 | 0.00 | 81 | 1005.4 |
| 20260505191404 | 57 | 292 | 1.0 | 2.0 | 0.00 | 0.00 | 0.00 | 79 | 1005.4 |
| 20260505190904 | 58 | 248 | 3.0 | 3.0 | 0.00 | 0.00 | 0.00 | 79 | 1005.4 |
| 20260505190404 | 58 | 278 | 2.0 | 3.0 | 0.00 | 0.00 | 0.00 | 78 | 1005.4 |
| 20260505185905 | 58 | 292 | 0.0 | 0.0 | 0.00 | 0.00 | 0.00 | 78 | 1005.4 |
| 20260505184904 | 59 | 223 | 0.0 | 0.0 | 0.00 | 0.00 | 0.00 | 77 | 1005.4 |
| 20260505184404 | 58 | 270 | 0.0 | 3.0 | 0.00 | 0.00 | 0.00 | 78 | 1005.4 |
| 20260505183904 | 58 | 270 | 3.0 | 3.0 | 0.00 | 0.00 | 0.00 | 78 | 1005.4 |
| 20260505183404 | 58 | 270 | 4.0 | 10.0 | 0.00 | 0.00 | 0.00 | 78 | 1005.4 |
| 20260505182904 | 58 | 271 | 6.0 | 10.0 | 0.00 | 0.00 | 0.00 | 78 | 1005.4 |
| 20260505182404 | 58 | 270 | 3.0 | 6.0 | 0.00 | 0.00 | 0.00 | 77 | 1005.4 |
| 20260505181904 | 58 | 292 | 0.0 | 3.0 | 0.00 | 0.00 | 0.00 | 78 | 1005.4 |
| 20260505181404 | 59 | 292 | 1.0 | 3.0 | 0.00 | 0.00 | 0.00 | 77 | 1005.4 |
| 20260505180404 | 59 | 233 | 4.0 | 5.0 | 0.00 | 0.00 | 0.00 | 76 | 1005.4 |
| 20260505175904 | 59 | 248 | 0.0 | 0.0 | 0.00 | 0.00 | 0.00 | 75 | 1005.4 |
| 20260505175404 | 60 | 292 | 3.0 | 6.0 | 0.00 | 0.00 | 0.00 | 75 | 1005.0 |
| 20260505174904 | 60 | 267 | 3.0 | 3.0 | 0.00 | 0.00 | 0.00 | 75 | 1005.0 |
| 20260505174404 | 60 | 270 | 0.0 | 1.0 | 0.00 | 0.00 | 0.00 | 75 | 1005.4 |
| 20260505173904 | 60 | 248 | 0.0 | 0.0 | 0.00 | 0.00 | 0.00 | 75 | 1005.0 |
| 20260505173404 | 60 | 281 | 5.0 | 6.0 | 0.00 | 0.00 | 0.00 | 74 | 1005.0 |
| 20260505172404 | 60 | 248 | 6.0 | 8.0 | 0.00 | 0.00 | 0.00 | 73 | 1004.7 |
| 20260505171904 | 60 | 255 | 0.0 | 0.0 | 0.00 | 0.00 | 0.00 | 73 | 1004.7 |
| 20260505171403 | 60 | 225 | 1.0 | 2.0 | 0.00 | 0.00 | 0.00 | 73 | 1004.7 |
| 20260505170904 | 60 | 248 | 0.0 | 0.0 | 0.00 | 0.00 | 0.00 | 72 | 1004.7 |
| 20260505170403 | 61 | 238 | 2.0 | 9.0 | 0.00 | 0.00 | 0.00 | 72 | 1004.7 |
| 20260505165904 | 61 | 270 | 7.0 | 9.0 | 0.00 | 0.00 | 0.00 | 71 | 1004.7 |
| 20260505165404 | 62 | 292 | 5.0 | 6.0 | 0.00 | 0.00 | 0.00 | 70 | 1004.7 |
| 20260505164904 | 62 | 261 | 6.0 | 8.0 | 0.00 | 0.00 | 0.00 | 68 | 1004.7 |
| 20260505164404 | 63 | 270 | 3.0 | 5.0 | 0.00 | 0.00 | 0.00 | 67 | 1004.4 |
| 20260505163904 | 64 | 248 | 6.0 | 9.0 | 0.00 | 0.00 | 0.00 | 65 | 1004.4 |
| 20260505163403 | 65 | 282 | 14.0 | 15.0 | 0.00 | 0.00 | 0.00 | 64 | 1004.4 |
| 20260505162903 | 66 | 270 | 5.0 | 8.0 | 0.00 | 0.00 | 0.00 | 63 | 1004.4 |
| 20260505162404 | 66 | 270 | 1.0 | 10.0 | 0.00 | 0.00 | 0.00 | 63 | 1004.7 |
| 20260505161904 | 66 | 240 | 7.0 | 10.0 | 0.00 | 0.00 | 0.00 | 62 | 1004.7 |
| 20260505160904 | 67 | 315 | 11.0 | 12.0 | 0.00 | 0.00 | 0.00 | 62 | 1004.7 |
| 20260505160404 | 67 | 305 | 7.0 | 18.0 | 0.00 | 0.00 | 0.00 | 62 | 1004.4 |
| 20260505152904 | 70 | 292 | 3.0 | 5.0 | 0.00 | 0.00 | 0.00 | 58 | 1003.7 |
| 20260505152404 | 70 | 248 | 1.0 | 6.0 | 0.00 | 0.00 | 0.00 | 58 | 1003.3 |
| 20260505151904 | 70 | 283 | 5.0 | 6.0 | 0.00 | 0.00 | 0.00 | 59 | 1003.3 |
| 20260505150904 | 70 | 248 | 2.0 | 5.0 | 0.00 | 0.00 | 0.00 | 58 | 1003.3 |
| 20260505140404 | 69 | 224 | 14.0 | 15.0 | 0.00 | 0.00 | 0.00 | 61 | 1002.7 |
| 20260505124904 | 65 | 225 | 1.0 | 10.0 | 0.00 | 0.00 | 0.00 | 62 | 1002.3 |
| 20260505124404 | 65 | 270 | 5.0 | 7.0 | 0.00 | 0.00 | 0.00 | 61 | 1002.3 |
| 20260505123903 | 65 | 270 | 1.0 | 6.0 | 0.00 | 0.00 | 0.00 | 61 | 1002.3 |
| 20260505123404 | 65 | 227 | 0.0 | 6.0 | 0.00 | 0.00 | 0.00 | 61 | 1002.0 |
| 20260505122904 | 65 | 270 | 4.0 | 10.0 | 0.00 | 0.00 | 0.00 | 60 | 1002.0 |
| 20260505122404 | 65 | 225 | 1.0 | 1.0 | 0.00 | 0.00 | 0.00 | 60 | 1002.0 |
| 20260505121904 | 66 | 202 | 0.0 | 6.0 | 0.00 | 0.00 | 0.00 | 60 | 1002.0 |
| 20260505121404 | 66 | 225 | 5.0 | 6.0 | 0.00 | 0.00 | 0.00 | 60 | 1002.0 |
| 20260505120903 | 66 | 225 | 5.0 | 9.0 | 0.00 | 0.00 | 0.00 | 60 | 1001.6 |
| 20260505120404 | 66 | 202 | 5.0 | 9.0 | 0.00 | 0.00 | 0.00 | 60 | 1001.6 |
| 20260505115903 | 66 | 225 | 5.0 | 6.0 | 0.00 | 0.00 | 0.00 | 60 | 1001.6 |
| 20260505115404 | 66 | 180 | 0.0 | 10.0 | 0.00 | 0.00 | 0.00 | 60 | 1001.6 |
| 20260505114904 | 66 | 260 | 4.0 | 13.0 | 0.00 | 0.00 | 0.00 | 60 | 1001.6 |
| 20260505114403 | 66 | 270 | 12.0 | 13.0 | 0.00 | 0.00 | 0.00 | 59 | 1001.6 |
| 20260505112904 | 66 | 248 | 1.0 | 6.0 | 0.00 | 0.00 | 0.00 | 59 | 1001.6 |
| 20260505112404 | 66 | 248 | 2.0 | 6.0 | 0.00 | 0.00 | 0.00 | 59 | 1001.6 |
| 20260505111904 | 66 | 220 | 1.0 | 10.0 | 0.00 | 0.00 | 0.00 | 59 | 1001.6 |
| 20260505111404 | 66 | 225 | 5.0 | 7.0 | 0.00 | 0.00 | 0.00 | 60 | 1001.6 |
| 20260505110404 | 66 | 278 | 9.0 | 12.0 | 0.00 | 0.00 | 0.00 | 61 | 1001.3 |
| 20260505101904 | 67 | 244 | 1.0 | 8.0 | 0.00 | 0.00 | 0.00 | 60 | 1001.0 |
| 20260505100404 | 67 | 202 | 8.0 | 8.0 | 0.00 | 0.00 | 0.00 | 61 | 1000.6 |
| 20260505095903 | 67 | 225 | 2.0 | 5.0 | 0.00 | 0.00 | 0.00 | 61 | 1000.6 |
| 20260505095404 | 67 | 203 | 1.0 | 3.0 | 0.00 | 0.00 | 0.00 | 61 | 1000.6 |
| 20260505094903 | 66 | 240 | 10.0 | 10.0 | 0.00 | 0.00 | 0.00 | 61 | 1000.4 |
| 20260505094404 | 66 | 225 | 4.0 | 6.0 | 0.00 | 0.00 | 0.00 | 61 | 1000.3 |
| 20260505093904 | 66 | 248 | 4.0 | 6.0 | 0.00 | 0.00 | 0.00 | 61 | 1000.0 |
| 20260505092904 | 66 | 248 | 6.0 | 7.0 | 0.00 | 0.00 | 0.00 | 61 | 1000.0 |
| 20260505092404 | 66 | 229 | 6.0 | 7.0 | 0.00 | 0.00 | 0.00 | 61 | 1000.0 |
| 20260505091904 | 66 | 225 | 1.0 | 6.0 | 0.00 | 0.00 | 0.00 | 62 | 1000.0 |
| 20260505091404 | 65 | 202 | 4.0 | 7.0 | 0.00 | 0.00 | 0.00 | 63 | 1000.0 |
| 20260505090904 | 65 | 248 | 1.0 | 6.0 | 0.00 | 0.00 | 0.00 | 64 | 1000.0 |
| 20260505090403 | 64 | 257 | 6.0 | 6.0 | 0.00 | 0.00 | 0.00 | 65 | 1000.0 |
| 20260505085904 | 64 | 202 | 0.0 | 0.0 | 0.00 | 0.00 | 0.00 | 65 | 1000.0 |
| 20260505085404 | 64 | 244 | 0.0 | 0.0 | 0.00 | 0.00 | 0.00 | 64 | 1000.0 |
| 20260505084904 | 64 | 220 | 0.0 | 0.0 | 0.00 | 0.00 | 0.00 | 64 | 1000.0 |
| 20260505084404 | 64 | 225 | 0.0 | 0.0 | 0.00 | 0.00 | 0.00 | 63 | 1000.0 |
| 20260505083904 | 65 | 292 | 0.0 | 0.0 | 0.00 | 0.00 | 0.00 | 63 | 1000.0 |
| 20260505083404 | 65 | 270 | 0.0 | 13.0 | 0.00 | 0.00 | 0.00 | 62 | 1000.0 |
| 20260505082904 | 65 | 248 | 7.0 | 13.0 | 0.00 | 0.00 | 0.00 | 62 | 1000.0 |
| 20260505082404 | 66 | 269 | 2.0 | 6.0 | 0.00 | 0.00 | 0.00 | 61 | 1000.1 |
| 20260505081403 | 67 | 292 | 3.0 | 5.0 | 0.00 | 0.00 | 0.00 | 59 | 1000.0 |
| 20260505080904 | 68 | 248 | 5.0 | 5.0 | 0.00 | 0.00 | 0.00 | 58 | 999.9 |
| 20260505075904 | 68 | 248 | 1.0 | 2.0 | 0.00 | 0.00 | 0.00 | 58 | 999.6 |
| 20260505075404 | 68 | 181 | 5.0 | 6.0 | 0.00 | 0.00 | 0.00 | 58 | 999.6 |
| 20260505074904 | 68 | 225 | 1.0 | 7.0 | 0.00 | 0.00 | 0.00 | 57 | 999.6 |
| 20260505073904 | 68 | 248 | 0.0 | 7.0 | 0.00 | 0.00 | 0.00 | 57 | 999.3 |
| 20260505073403 | 69 | 225 | 13.0 | 15.0 | 0.00 | 0.00 | 0.00 | 57 | 999.3 |
| 20260505072904 | 68 | 180 | 6.0 | 10.0 | 0.00 | 0.00 | 0.00 | 57 | 999.6 |
| 20260505072404 | 68 | 281 | 9.0 | 10.0 | 0.00 | 0.00 | 0.00 | 57 | 999.5 |
| 20260505071904 | 69 | 202 | 7.0 | 9.0 | 0.00 | 0.00 | 0.00 | 58 | 999.6 |
| 20260505071404 | 69 | 225 | 5.0 | 9.0 | 0.00 | 0.00 | 0.00 | 57 | 999.6 |
| 20260505070904 | 69 | 201 | 9.0 | 9.0 | 0.00 | 0.00 | 0.00 | 57 | 999.3 |
| 20260505070404 | 69 | 227 | 0.0 | 7.0 | 0.00 | 0.00 | 0.00 | 57 | 999.3 |
| 20260505065904 | 69 | 225 | 3.0 | 7.0 | 0.00 | 0.00 | 0.00 | 57 | 999.3 |